Regional Weather Roundup
Issued by NWS Northern Indiana

Home | Current Version | Previous Version | Text Only | Print | Product List | Glossary Off
Versions: 1 2 3 4 5 6 7 8 9 10 11 12 13 14 15 16 17 18 19 20 21 22 23 24 25 26 27 28 29 30 31 32 33 34 35 36 37 38 39 40 41 42 43 44 45 46 47 48 49 50

000
ASUS43 KIWX 210010
RWRIWX

KIWX WEATHER ROUNDUP
NATIONAL WEATHER SERVICE NORTHERN INDIANA
800 PM EDT SAT SEP 20 2014

NOTE: "FAIR" INDICATES FEW OR NO CLOUDS BELOW 12,000 FEET WITH NO
SIGNIFICANT WEATHER AND/OR OBSTRUCTIONS TO VISIBILITY.

* THESE STATIONS ARE NOT UNDER NWS QUALITY CONTROL. THEY ALSO MAY NOT
  REPORT WEATHER SUCH AS PRECIPITATION OR FOG.

INZ001>027-210100-
NORTHERN INDIANA

CITY           SKY/WX    TMP DP  RH WIND       PRES   REMARKS
GARY*          MOCLDY    73  68  83 SW3       29.82R
VALPARAISO       N/A     67  65  93 S8        29.84
6HR MIN TEMP:  67; 6HR MAX TEMP:  81;

MICHIGAN CITY* MOCLDY    66  64  94 S5        29.82R
LAPORTE*       MOCLDY    65  65 100 NW6       29.83R
6HR MIN TEMP:  64; 6HR MAX TEMP:  79; 6HR PCP:  0.29;

SOUTH BEND     MOCLDY    66  63  90 SW12      29.83R
6HR MIN TEMP:  65; 6HR MAX TEMP:  81; 6HR PCP:  0.30;

GOSHEN         CLOUDY   N/A N/A N/A SW7       29.84S
                                      6HR PCP:  0.41;

MONTICELLO*    LGT RAIN  67  65  94 S9G16     29.87S
6HR MIN TEMP:  65; 6HR MAX TEMP:  81; 6HR PCP:  0.46;

LOGANSPORT*    CLOUDY    64  63  94 SW8       29.90R
ROCHESTER*     CLOUDY    68  68 100 S9        29.88R
WARSAW*        LGT RAIN  64  63  94 CALM      29.86R
ANGOLA*        PTCLDY    63  61  94 S6        29.85F
FORT WAYNE     TSTM      66  64  93 S10       29.90F
6HR MIN TEMP:  65; 6HR MAX TEMP:  80; 6HR PCP:  0.34;

HUNTINGTON*    TSTM      65  64  99 S6        29.90F
6HR MIN TEMP:  64; 6HR MAX TEMP:  79; 6HR PCP:  0.75;

PERU/GRISSOM   CLOUDY    64  64 100 SW13      29.90R
6HR MIN TEMP:  64; 6HR MAX TEMP:  80; 6HR PCP:  0.91;

MARION*        HVY RAIN  66  61  84 NW5       29.93R
6HR MIN TEMP:  40; 6HR MAX TEMP:  90; 6HR PCP:  0.34;


$$
INZ028>050-210100-
CENTRAL INDIANA

CITY           SKY/WX    TMP DP  RH WIND       PRES   REMARKS
LAFAYETTE      CLOUDY    66  64  93 S5        29.89F
6HR MIN TEMP:  66; 6HR MAX TEMP:  81; 6HR PCP:  0.19;

KOKOMO*        CLOUDY    66  61  82 SW13      29.91F
6HR MIN TEMP:  64; 6HR MAX TEMP:  82; 6HR PCP:  0.51;

MUNCIE*        MOCLDY    76  64  66 SW8       29.92R
6HR MIN TEMP:  76; 6HR MAX TEMP:  80;

INDIANAPOLIS   CLOUDY    74  66  76 SW8       29.93R
6HR MIN TEMP:  74; 6HR MAX TEMP:  80;


$$
MIZ043>046-050>051-056>058-064>065-071>073-077>080-210100-
SOUTHWEST LOWER MICHIGAN

CITY           SKY/WX    TMP DP  RH WIND       PRES   REMARKS
BATTLE CREEK   CLOUDY    67  64  90 S9        29.80F
6HR MIN TEMP:  67; 6HR MAX TEMP:  79; 6HR PCP:  0.04;

BENTON HARBOR  PTCLDY    68  67  96 S7        29.79R FOG
6HR MIN TEMP:  68; 6HR MAX TEMP:  78; 6HR PCP:  0.05;

COLDWATER*     CLOUDY    64  62  92 S7        29.82F
6HR MIN TEMP:  64; 6HR MAX TEMP:  77;

HILLSDALE*     LGT RAIN  64  64 100 S8        29.84F
6HR MIN TEMP:  63; 6HR MAX TEMP:  80;

HOLLAND        PTCLDY    66  63  90 S5        29.77R
6HR MIN TEMP:  66; 6HR MAX TEMP:  75; 6HR PCP:  0.59;

GRAND RAPIDS   CLOUDY    67  67 100 SW12      29.77R
6HR MIN TEMP:  67; 6HR MAX TEMP:  77; 6HR PCP:  0.20;

KALAMAZOO      CLOUDY    67  65  93 S8        29.80F FOG
6HR MIN TEMP:  67; 6HR MAX TEMP:  81; 6HR PCP:  0.04;

STURGIS*       CLOUDY    63  61  94 S7        29.83S
THREE RIVERS*  FAIR      64  62  91 S7        29.82R

$$
OHZ001>008-015>018-024>025-210100-
NORTHWEST OHIO

CITY           SKY/WX    TMP DP  RH WIND       PRES   REMARKS
WAUSEON*       LGT RAIN  64  63  94 SW10G18   29.88S
DEFIANCE       MIX PCPN   1  50 100 SW9       29.89R WCI -14
6HR MIN TEMP:   1; 6HR MAX TEMP:  81; 6HR PCP:  0.05;

FINDLAY        MOCLDY    76  60  57 SW10      29.89R
6HR MIN TEMP:  75; 6HR MAX TEMP:  82;

TOLEDO EXPRESS LGT RAIN  66  63  88 W16       29.88R
6HR MIN TEMP:  67; 6HR MAX TEMP:  81; 6HR PCP:  0.01;

TOLEDO METCALF RAIN      73  61  65 SW15G23   29.89R
6HR MIN TEMP:  73; 6HR MAX TEMP:  82; 6HR PCP:  0.04;

LIMA           MOCLDY    76  61  59 SW10      29.91R
6HR MIN TEMP:  76; 6HR MAX TEMP:  81;


$$
AND FOR LAKE MICHIGAN COASTAL AND OPEN LAKE BUOY OBSERVATIONS

STATION/POSITION TEMP    WIND        PRES    VSBY  WAVE
                 AIR SEA DIR/SP/G                  HT/PER
                 (F)     (DEG/KT/KT) (MB)    (MI)  (FT/S)
CALUMET HARBOR    72     210/  6/  9 1008.2R
MICHIGAN CITY     69     170/ 10/ 12   N/A
SAINT JOSEPH      70     170/  6/ 12 1009.8R
SOUTH LAKE BUOY   66 63  230/ 12/ 14 1007.8R         2/ 4
4 MI NW BRIDGMAN  67 66  170/ 10/ 12   N/A           2/ 4
MICHIGAN CITY     67 65  200/  8/ 10   N/A           1/ 3

$$
&&


USA.gov is the U.S. government's official web portal to all federal, state and local government web resources and services.